Regional Weather Roundup
Issued by NWS

Home | Current Version | Previous Version | Graphics & Text | Print | Product List | Glossary On
Versions: 1 2 3 4 5 6 7 8 9 10 11 12 13 14 15 16 17 18 19 20 21 22 23 24 25 26 27 28 29 30 31 32 33 34 35 36 37 38 39 40 41 42 43 44 45 46 47 48 49 50
022
ASUS43 KLOT 230604
RWRIL

ILLINOIS REGIONAL WEATHER ROUNDUP
NATIONAL WEATHER SERVICE CHICAGO/ROMEOVILLE IL
100 AM CDT SAT SEP 23 2017

NOTE: "FAIR" INDICATES FEW OR NO CLOUDS BELOW 12,000 FEET WITH NO
SIGNIFICANT WEATHER AND/OR OBSTRUCTIONS TO VISIBILITY.

* THESE STATIONS ARE NOT UNDER NWS QUALITY CONTROL. THEY ALSO MAY NOT
  REPORT WEATHER SUCH AS PRECIPITATION OR FOG.

ILZ001-002-007-009-015-016-024-230700-
NORTHWEST ILLINOIS

CITY           SKY/WX    TMP DP  RH WIND       PRES   REMARKS
MOLINE         CLEAR     74  64  71 S5        30.00R
6HR MIN TEMP:  72; 6HR MAX TEMP:  82;

STERLING*      CLEAR     66  65  96 E3        30.03R
SAVANNA*       CLEAR     68  65  90 CALM      30.01S
$$

ILZ003-004-008-010-011-017-018-230700-
NORTH CENTRAL ILLINOIS

CITY           SKY/WX    TMP DP  RH WIND       PRES   REMARKS
ROCKFORD       CLEAR     72  64  76 S3        30.04S
6HR MIN TEMP:  71; 6HR MAX TEMP:  83;

FREEPORT*      CLEAR     70  64  79 S5        30.04S
ROCHELLE*      CLEAR     68  64  88 CALM      30.04S
DE KALB*       CLEAR     69  65  85 CALM      30.06R
$$

ILZ005-006-012>014-019>023-230700-
NORTHEAST ILLINOIS

CITY           SKY/WX    TMP DP  RH WIND       PRES   REMARKS
CHICAGO-OHARE  CLEAR     79  67  66 S3        30.04R HX  81
6HR MIN TEMP:  77; 6HR MAX TEMP:  87;

CHICAGO-MIDWAY CLEAR     81  67  62 S7        30.04S HX  83
6HR MIN TEMP:  81; 6HR MAX TEMP:  91;

AURORA         CLEAR     70  66  87 NE3       30.05R
6HR MIN TEMP:  69; 6HR MAX TEMP:  82;

LANSING*       CLEAR     73  69  85 CALM      30.05S
JOLIET*        PTCLDY    74  69  83 CALM      30.05R
WAUKEGAN       CLEAR     71  68  90 CALM      30.03S
6HR MIN TEMP:  71; 6HR MAX TEMP:  80;

DUPAGE AIRPORT CLEAR     71  66  84 CALM      30.04S
6HR MIN TEMP:  70; 6HR MAX TEMP:  84;

KANKAKEE*      CLEAR     70  67  90 CALM      30.06R
WHEELING       CLEAR     74  70  87 CALM      30.05S FOG
6HR MIN TEMP:  73; 6HR MAX TEMP:  86;

MORRIS*        CLEAR     71  67  87 CALM      30.03S
NORTHERLY ISL    N/A     74  68  81 CALM        N/A
$$

LMZ740>746-230700-
SOUTHERN LAKE MICHIGAN

STATION/POSITION SKY/WX   TEMP    WIND        PRES    VSBY  WAVE
                          AIR SEA DIR/SP/G                  HT/PER
                          (F)     (DEG/KT/KT) (MB)    (MI)  (FT/S)
SOUTHERN BUOY              74 70  150/  8/  8 1017.0          0
WILMETTE HARBOR            74 72  160/  6/  6   N/A           1/ 2
HARRISON CRIB              77     170/  9/ 10   N/A
BURNHAM HARBOR             73                   N/A
CALUMET HARBOR             80     170/  5/  8 1016.7F
BURNS HARBOR               78     180/  4/  6 1017.6S
MICHIGAN CITY              79     140/  8/  9   N/A
MICHIGAN CITY 6N           74 72  190/  2/  4   N/A           0
ST. JOSEPH                 74 72  160/  4/  6 1017.1F         0
$$

ILZ025>027-034>036-040-047-049-050-058-095>099-230700-
WEST-CENTRAL ILLINOIS

CITY           SKY/WX    TMP DP  RH WIND       PRES   REMARKS
QUINCY         CLEAR     72  63  73 SE7       30.00S
GALESBURG*     CLEAR     72  64  75 E3        30.03S
MACOMB*        CLEAR     65  63  93 SE5       30.03S
$$

ILZ028>032-037-038-041>044-048-051>054-059>061-230700-
CENTRAL ILLINOIS

CITY           SKY/WX    TMP DP  RH WIND       PRES   REMARKS
BLOOMINGTON    CLEAR     75  65  70 SE7       30.06R
DECATUR        CLEAR     70  64  81 CALM      30.04S
PEORIA         CLEAR     78  65  63 SE6       30.02S HX  80
6HR MIN TEMP:  77; 6HR MAX TEMP:  85;

LACON*         CLEAR     71  66  83 CALM      30.02R
LINCOLN*       CLEAR     73  67  79 S3        30.02F
SPRINGFIELD    CLEAR     75  66  73 E7        30.02S
6HR MIN TEMP:  73; 6HR MAX TEMP:  87;

TAYLORVILLE    NOT AVBL
$$

ILZ033-039-045-046-055>057-062-063-230700-
EAST-CENTRAL ILLINOIS

CITY           SKY/WX    TMP DP  RH WIND       PRES   REMARKS
MATTOON        CLEAR     73  67  81 S5        30.04S
PARIS*         CLEAR     69  68  98 CALM      30.06S
$$

ILZ079-100>102-230700-
SOUTHWEST ILLINOIS

CITY           SKY/WX    TMP DP  RH WIND       PRES   REMARKS
BELLEVILLE     CLEAR     70  66  89 CALM      30.00S
CAHOKIA*       CLEAR     72  64  76 S3        30.01S
SPARTA*        CLEAR     73  66  79 SE3       30.03S
$$

ILZ064>066-069>071-074>076-080>082-084>086-088>090-092>094-230700-
SOUTH-CENTRAL ILLINOIS

CITY           SKY/WX    TMP DP  RH WIND       PRES   REMARKS
CARBONDALE     CLEAR     67  67 100 CALM      30.02S
6HR MIN TEMP:  67; 6HR MAX TEMP:  80;

MARION         CLEAR     70  70 100 CALM      30.03S
MT. VERNON       N/A     65  65 100 CALM      30.03S
CENTRALIA*     CLEAR     70  67  92 CALM      30.02F
SALEM*         CLEAR     73  66  79 CALM      30.03S
METROPOLIS*    CLEAR     67  66  96 CALM      30.02S
$$

ILZ067-068-072-073-078-083-087-091-230700-
SOUTHEAST ILLINOIS

CITY           SKY/WX    TMP DP  RH WIND       PRES   REMARKS
LAWRENCEVILLE  CLEAR     72  69  90 CALM      30.04S
FLORA*         CLEAR     71  68  90 CALM      30.04S
FAIRFIELD*     CLEAR     68  65  90 CALM      30.02F
HARRISBURG*    CLEAR     68  66  93 CALM      30.03S
ROBINSON*      MOCLDY    66  66  99 CALM      30.05S
CARMI*         CLEAR     66  66  99 CALM      30.02S
$$

ABBREVIATIONS USED IN REMARKS
   TC - TEMPERATURE IN CELSIUS
  WCI - WIND CHILL INDEX
   HX - HEAT INDEX
  VSB - VISIBILITY
$$





USA.gov is the U.S. government's official web portal to all federal, state and local government web resources and services.